When you browse on this site, cookies collect data to enhance your experience and personalize the content and advertising you see.
Visit our Privacy Policy to learn more. By continuing to use the site, you agree to this use of cookies and data.
  • en Suisse
  • Liste des pays
  • À 7 jours
  • Température de l'eau
  • Carte satellitaire
  • Carte météo
  • Widgets météo
  • user-avatar
    Se connecter

    Météo par heure à Dreieich

    Ce jour, 23 Juillet, Mardi

    Heure Température Précipitation Vent Pression Humidité
    00:00 +24°C° 0 mm 1 m/s 752 mmHg 55%
    01:00 +24°C° 0 mm 1 m/s 751 mmHg 55%
    02:00 +23°C° 0 mm 1 m/s 751 mmHg 57%
    03:00 +23°C° 0 mm 1 m/s 751 mmHg 59%
    04:00 +22°C° 0 mm 1 m/s 751 mmHg 61%
    05:00 +23°C° 0 mm 1 m/s 751 mmHg 60%
    06:00 +24°C° 0 mm 1 m/s 751 mmHg 59%
    07:00 +24°C° 0 mm 1 m/s 751 mmHg 58%
    08:00 +26°C° 0 mm 1 m/s 751 mmHg 52%
    09:00 +28°C° 0 mm 1 m/s 751 mmHg 46%
    10:00 +30°C° 0 mm 1 m/s 751 mmHg 40%
    11:00 +31°C° 0 mm 2 m/s 751 mmHg 38%
    12:00 +34°C° 0 mm 2 m/s 750 mmHg 35%
    13:00 +35°C° 0 mm 2 m/s 750 mmHg 33%
    14:00 +35°C° 0 mm 2 m/s 750 mmHg 33%
    15:00 +35°C° 0 mm 2 m/s 749 mmHg 34%
    16:00 +35°C° 0 mm 3 m/s 749 mmHg 35%
    17:00 +34°C° 0 mm 2 m/s 749 mmHg 39%
    18:00 +32°C° 0 mm 2 m/s 748 mmHg 44%
    19:00 +31°C° 0 mm 2 m/s 748 mmHg 49%
    20:00 +30°C° 0 mm 2 m/s 748 mmHg 52%
    21:00 +28°C° 0 mm 1 m/s 748 mmHg 55%
    22:00 +27°C° 0 mm 1 m/s 749 mmHg 59%
    23:00 +26°C° 0 mm 1 m/s 748 mmHg 60%

    Demain, 24 Juillet, Mercredi

    Heure Température Précipitation Vent Pression Humidité
    00:00 +26°C° 0 mm 1 m/s 748 mmHg 62%
    01:00 +25°C° 0 mm 1 m/s 748 mmHg 63%
    02:00 +25°C° 0 mm 1 m/s 748 mmHg 65%
    03:00 +24°C° 0 mm 1 m/s 747 mmHg 67%
    04:00 +24°C° 0 mm 1 m/s 747 mmHg 69%
    05:00 +24°C° 0 mm 1 m/s 747 mmHg 67%
    06:00 +25°C° 0 mm 1 m/s 747 mmHg 65%
    07:00 +26°C° 0 mm 1 m/s 747 mmHg 64%
    08:00 +27°C° 0 mm 2 m/s 747 mmHg 58%
    09:00 +29°C° 0 mm 2 m/s 747 mmHg 52%
    10:00 +31°C° 0 mm 2 m/s 747 mmHg 46%
    11:00 +34°C° 0 mm 2 m/s 747 mmHg 42%
    12:00 +35°C° 0 mm 2 m/s 747 mmHg 38%
    13:00 +37°C° 0 mm 2 m/s 747 mmHg 33%
    14:00 +37°C° 0 mm 2 m/s 746 mmHg 32%
    15:00 +37°C° 0 mm 2 m/s 746 mmHg 32%
    16:00 +38°C° 0 mm 2 m/s 746 mmHg 31%
    17:00 +37°C° 0 mm 2 m/s 746 mmHg 35%
    18:00 +36°C° 0 mm 2 m/s 746 mmHg 39%
    19:00 +34°C° 0 mm 2 m/s 746 mmHg 44%
    20:00 +32°C° 0 mm 1 m/s 746 mmHg 48%
    21:00 +30°C° 0 mm 1 m/s 746 mmHg 53%
    22:00 +29°C° 0 mm 1 m/s 747 mmHg 58%
    23:00 +28°C° 0 mm 1 m/s 747 mmHg 60%

    Après-demain, 25 Juillet, Jeudi

    Heure Température Précipitation Vent Pression Humidité
    00:00 +27°C° 0 mm 1 m/s 747 mmHg 62%
    01:00 +27°C° 0 mm 1 m/s 747 mmHg 64%
    02:00 +26°C° 0 mm 1 m/s 747 mmHg 65%
    03:00 +26°C° 0 mm 1 m/s 747 mmHg 67%
    04:00 +25°C° 0 mm 1 m/s 747 mmHg 69%
    05:00 +26°C° 0 mm 1 m/s 747 mmHg 67%
    06:00 +27°C° 0 mm 1 m/s 747 mmHg 65%
    07:00 +27°C° 0 mm 1 m/s 747 mmHg 63%
    08:00 +29°C° 0 mm 1 m/s 747 mmHg 56%
    09:00 +31°C° 0 mm 1 m/s 747 mmHg 49%
    10:00 +34°C° 0 mm 2 m/s 748 mmHg 42%
    11:00 +36°C° 0 mm 2 m/s 747 mmHg 38%
    12:00 +37°C° 0 mm 2 m/s 747 mmHg 33%
    13:00 +38°C° 0 mm 2 m/s 747 mmHg 29%
    14:00 +38°C° 0 mm 2 m/s 746 mmHg 29%
    15:00 +38°C° 0 mm 3 m/s 746 mmHg 29%
    16:00 +38°C° 0 mm 3 m/s 746 mmHg 28%
    17:00 +37°C° 0 mm 3 m/s 746 mmHg 33%
    18:00 +36°C° 0 mm 3 m/s 745 mmHg 37%
    19:00 +35°C° 0 mm 2 m/s 745 mmHg 42%
    20:00 +33°C° 0 mm 3 m/s 746 mmHg 44%
    21:00 +31°C° 0 mm 3 m/s 746 mmHg 47%
    22:00 +30°C° 0 mm 3 m/s 746 mmHg 49%
    23:00 +29°C° 0 mm 2 m/s 746 mmHg 49%

    26 Juillet, Vendredi

    Heure Température Précipitation Vent Pression Humidité
    00:00 +28°C° 0 mm 2 m/s 746 mmHg 49%
    01:00 +27°C° 0 mm 2 m/s 745 mmHg 48%
    02:00 +27°C° 0 mm 2 m/s 745 mmHg 51%
    03:00 +26°C° 0 mm 2 m/s 745 mmHg 54%
    04:00 +25°C° 0 mm 2 m/s 745 mmHg 57%
    05:00 +25°C° 0 mm 2 m/s 745 mmHg 57%
    06:00 +26°C° 0 mm 2 m/s 744 mmHg 57%
    07:00 +26°C° 0 mm 2 m/s 744 mmHg 57%
    08:00 +28°C° 0 mm 2 m/s 744 mmHg 52%
    09:00 +30°C° 0 mm 2 m/s 744 mmHg 47%
    10:00 +33°C° 0 mm 3 m/s 744 mmHg 42%
    11:00 +34°C° 0 mm 3 m/s 744 mmHg 39%
    12:00 +35°C° 0 mm 3 m/s 743 mmHg 35%
    13:00 +36°C° 0 mm 3 m/s 743 mmHg 32%
    14:00 +37°C° 0 mm 3 m/s 743 mmHg 30%
    15:00 +37°C° 0 mm 3 m/s 742 mmHg 29%
    16:00 +37°C° 0 mm 3 m/s 742 mmHg 27%
    17:00 +36°C° 0 mm 3 m/s 742 mmHg 30%
    18:00 +35°C° 0 mm 3 m/s 741 mmHg 34%
    19:00 +34°C° 0 mm 3 m/s 741 mmHg 37%
    20:00 +32°C° 0 mm 4 m/s 741 mmHg 40%
    21:00 +30°C° 0 mm 4 m/s 741 mmHg 43%
    22:00 +28°C° 0 mm 5 m/s 741 mmHg 46%
    23:00 +27°C° 0 mm 4 m/s 741 mmHg 48%

    27 Juillet, Samedi

    Heure Température Précipitation Vent Pression Humidité
    00:00 +26°C° 0 mm 4 m/s 741 mmHg 50%
    01:00 +26°C° 0 mm 3 m/s 741 mmHg 52%
    02:00 +25°C° 0 mm 3 m/s 740 mmHg 53%
    03:00 +24°C° 0 mm 3 m/s 740 mmHg 54%
    04:00 +22°C° 0 mm 3 m/s 740 mmHg 55%
    05:00 +24°C° 0 mm 3 m/s 739 mmHg 56%
    06:00 +24°C° 0 mm 3 m/s 739 mmHg 57%
    07:00 +24°C° 0 mm 3 m/s 739 mmHg 58%
    08:00 +25°C° 0 mm 3 m/s 739 mmHg 55%
    09:00 +27°C° 0 mm 3 m/s 739 mmHg 51%
    10:00 +28°C° 0 mm 4 m/s 739 mmHg 48%
    11:00 +30°C° 0 mm 4 m/s 739 mmHg 45%
    12:00 +32°C° 0 mm 4 m/s 739 mmHg 41%
    13:00 +33°C° 0 mm 4 m/s 738 mmHg 38%
    14:00 +33°C° 0 mm 4 m/s 738 mmHg 37%
    15:00 +33°C° 0 mm 4 m/s 738 mmHg 35%
    16:00 +34°C° 0 mm 4 m/s 737 mmHg 34%
    17:00 +33°C° 0 mm 4 m/s 737 mmHg 36%
    18:00 +32°C° 0 mm 4 m/s 737 mmHg 39%
    19:00 +30°C° 0 mm 3 m/s 737 mmHg 41%
    20:00 +29°C° 0 mm 3 m/s 737 mmHg 45%
    21:00 +27°C° 0 mm 3 m/s 738 mmHg 48%
    22:00 +26°C° 0 mm 4 m/s 738 mmHg 51%
    23:00 +26°C° 0 mm 4 m/s 738 mmHg 52%

    28 Juillet, Dimanche

    Heure Température Précipitation Vent Pression Humidité
    00:00 +25°C° 0 mm 4 m/s 738 mmHg 54%
    01:00 +23°C° 0 mm 4 m/s 738 mmHg 55%
    02:00 +24°C° 0 mm 3 m/s 738 mmHg 57%
    03:00 +22°C° 0 mm 3 m/s 738 mmHg 59%
    04:00 +22°C° 0 mm 3 m/s 738 mmHg 61%
    05:00 +22°C° 0 mm 3 m/s 738 mmHg 61%
    06:00 +22°C° 0 mm 3 m/s 739 mmHg 60%
    07:00 +24°C° 0 mm 3 m/s 739 mmHg 59%
    08:00 +25°C° 0 mm 3 m/s 739 mmHg 55%
    09:00 +27°C° 0 mm 3 m/s 739 mmHg 51%
    10:00 +28°C° 0 mm 3 m/s 740 mmHg 46%
    11:00 +29°C° 0 mm 3 m/s 740 mmHg 43%
    12:00 +30°C° 0 mm 3 m/s 740 mmHg 40%
    13:00 +33°C° 0 mm 3 m/s 740 mmHg 37%
    14:00 +33°C° 0 mm 3 m/s 740 mmHg 36%
    15:00 +32°C° 0 mm 2 m/s 740 mmHg 36%
    16:00 +32°C° 0 mm 2 m/s 740 mmHg 36%
    17:00 +31°C° 0 mm 2 m/s 740 mmHg 40%
    18:00 +30°C° 0 mm 2 m/s 741 mmHg 45%
    19:00 +29°C° 0 mm 2 m/s 741 mmHg 49%
    20:00 +27°C° 0.4 mm 2 m/s 742 mmHg 57%
    21:00 +26°C° 0.4 mm 2 m/s 742 mmHg 64%
    22:00 +24°C° 0.4 mm 2 m/s 743 mmHg 71%
    23:00 +24°C° 0.1 mm 2 m/s 743 mmHg 74%
    Voir plus